Regional Weather Roundup
Issued by NWS

Home | Current Version | Previous Version | Text Only | Print | Product List | Glossary On
Versions: 1 2 3 4 5 6 7 8 9 10 11 12 13 14 15 16 17 18 19 20 21 22 23 24 25 26 27 28 29 30 31 32 33 34 35 36 37 38 39 40 41 42 43 44 45 46 47 48 49 50
000
ASUS43 KDMX 110401
RWRIA

WEATHER ROUNDUP FOR IOWA
NATIONAL WEATHER SERVICE DES MOINES IA
1000 PM CST SUN DEC 10 2017

NOTE: "FAIR" INDICATES FEW OR NO CLOUDS BELOW 12,000 FEET WITH NO
SIGNIFICANT WEATHER AND/OR OBSTRUCTIONS TO VISIBILITY.

* - THESE STATIONS ARE NOT NWS STATIONS...THUS NOT UNDER NWS
QUALITY CONTROL.  THEY ALSO DO NOT REPORT WEATHER SUCH
AS PRECIPITATION OR FOG.

IAZ001>003-012>014-020>022-031>034-043>046-110500-
   NORTHWEST IOWA

CITY           SKY/WX    TMP DP  RH WIND       PRES   REMARKS
CARROLL *      CLOUDY    32  23  69 SW3       30.02F
CHEROKEE *     CLOUDY    31  27  84 CALM      30.00F
DENISON *      CLOUDY    30  23  74 CALM      30.05F
LE MARS *      CLOUDY    30  25  80 S6        30.00F WCI  24
ORANGE CITY *  CLOUDY    36  30  80 SW5       29.99F WCI  32
SHELDON *      CLOUDY    34  28  80 SW5       29.97F WCI  30
SIOUX CITY     PTCLDY    31  23  72 E3        30.02F
SPENCER        CLOUDY    33  27  78 SW6       29.98F WCI  28
STORM LAKE *   CLOUDY    34  25  69 W7        30.00F WCI  28
$$

IAZ055>058-069>071-079>083-090>094-110500-
   SOUTHWEST IOWA

CITY           SKY/WX    TMP DP  RH WIND       PRES   REMARKS
ATLANTIC *     CLOUDY    28  23  80 SW3       30.07S
AUDUBON *      CLOUDY    28  23  80 CALM      30.05S
CLARINDA *       N/A     25  19  80 CALM      30.11S
COUNCIL BLFS * CLOUDY    39  28  65 SW10      30.05F WCI  32
CRESTON *      CLOUDY    34  25  69 SW6       30.07F WCI  29
HARLAN  *      CLOUDY    28  21  74 CALM      30.08F
LAMONI         CLEAR     36  24  62 SW6       30.08F WCI  31
RED OAK *      CLOUDY    25  21  86 CALM      30.08F
SHENANDOAH *   CLOUDY    27  21  80 CALM      30.10F
$$

IAZ047>049-059>061-072>074-084-110500-
   CENTRAL IOWA

CITY           SKY/WX    TMP DP  RH WIND       PRES   REMARKS
AMES           CLOUDY    31  24  75 SW7       30.04F WCI  24
ANKENY *       CLOUDY    30  23  74 CALM      30.07F
BOONE *        CLOUDY    34  23  64 CALM      30.02F
CHARITON *     CLOUDY    37  25  60 W3        30.07F
DES MOINES     CLOUDY    36  25  64 CALM      30.06F
GRINNELL*      CLOUDY    32  24  70 CALM      30.08F
KNOXVILLE *    CLOUDY    32  23  69 W5        30.06F WCI  27
MARSHALLTOWN   CLOUDY    31  22  69 SE5       30.05F WCI  26
NEWTON *       CLOUDY    34  23  64 E5        30.06F WCI  30
PELLA *        CLOUDY    34  24  68 CALM      30.08F
PERRY *          N/A     32  21  64 SW8       30.04F WCI  25
$$

IAZ004>006-015-016-023>025-035-036-110500-
   NORTH CENTRAL IOWA

CITY           SKY/WX    TMP DP  RH WIND       PRES   REMARKS
ALGONA *       CLOUDY    32  27  80 S7        29.99F WCI  26
CLARION *      CLOUDY    30  23  74 S6        30.01F WCI  24
ESTHERVILLE    PTCLDY    30  28  92 S6        29.97F WCI  24
FORT DODGE *   CLOUDY    32  24  72 S3        30.01F
MASON CITY     CLOUDY    29  22  75 S6        30.01F WCI  23
FOREST CITY *    N/A     30  27  86 SE6       29.98F WCI  24
WEBSTER CITY * CLOUDY    32  23  69 SW7       30.00F WCI  26
IOWA FALLS *     N/A     32  24  72 CALM      30.04F
$$

IAZ007>011-017>019-026>030-037>042-050>054-066-110500-
   NORTHEAST IOWA

CITY           SKY/WX    TMP DP  RH WIND       PRES   REMARKS
CEDAR RAPIDS   CLOUDY    28  22  78 CALM      30.07F
CHARLES CITY * CLOUDY    25  25 100 SE5       30.02F WCI  19
CLINTON *      CLOUDY    21  18  88 W5        30.10S WCI  15
DECORAH *      CLOUDY    27  21  80 CALM      30.02F
DUBUQUE        CLOUDY    18  14  84 CALM      30.06S
MONTICELLO *   CLOUDY    16  12  86 CALM      30.07F
OELWEIN *      CLOUDY    19  19 100 SE6       30.04F WCI  11
WATERLOO       CLOUDY    28  22  78 SE3       30.05F
$$

IAZ064-065-067-068-078-110500-
   EAST CENTRAL IOWA

CITY           SKY/WX    TMP DP  RH WIND       PRES   REMARKS
DAVENPORT      CLOUDY    21  16  81 CALM      30.11F
IOWA CITY      CLOUDY    31  23  72 SE3       30.10F
MT. PLEASANT * CLOUDY    30  22  72 CALM      30.11R
MUSCATINE *    CLOUDY    28  23  80 CALM      30.12S
QUAD CITIES    CLOUDY    23  18  81 CALM      30.09F
$$

IAZ062-063-075>077-085>089-095>099-110500-
   SOUTHEAST IOWA

CITY           SKY/WX    TMP DP  RH WIND       PRES   REMARKS
BURLINGTON     CLOUDY    32  25  75 NE3       30.11R
FAIRFIELD *    CLOUDY    34  23  64 CALM      30.09S
FORT MADISON * CLOUDY    34  25  69 CALM      30.11S
KEOKUK *       CLOUDY    32  27  80 SW6       30.11R WCI  26
OSKALOOSA *    CLOUDY    32  24  71 E3        30.08F
OTTUMWA        CLOUDY    32  25  75 E3        30.08F
WASHINGTON *   CLOUDY    30  25  80 SE6       30.10F WCI  24
$$

ABBREVIATIONS USED IN REMARKS
   TC - TEMPERATURES IN CELSIUS
  WCI - WIND CHILL INDEX
   HX - HEAT INDEX
  VSB - VISIBILITY
$$




USA.gov is the U.S. government's official web portal to all federal, state and local government web resources and services.